{"data":{"norad_id":58933,"epoch":"2026-05-25T04:35:34.347264Z","epoch_age_seconds":69174,"freshness":"FRESH","line1":"1 58933U 24027C   26145.19136976 -.00000033  00000+0  11028-4 0  9995","line2":"2 58933  53.1593 314.0972 0001480  89.5663 270.5508 15.30186523129049","mean_motion":15.30186523,"eccentricity":0.000148,"inclination_deg":53.1593,"raan_deg":314.0972,"arg_perigee_deg":89.5663,"mean_anomaly_deg":270.5508,"bstar":1.1028e-5,"rev_number":12904,"period_min":94.106174532031,"perigee_km":474.2410075456,"apogee_km":476.26961166924,"semimajor_km":6853.3923096074,"source":"CELESTRAK","updated_at":"2026-05-25T13:38:18.788367Z"}}